Location: Janeiro
(34.9957°N, 76.7652°W)
Time: 09:38:57
(UTC+00:00)

FengYun 1-2 T - Pass Details

Date: 14 December 2019
Orbit: 847 x 880 km, 98.7° (Epoch: 28 January)

Event Time Altitude Azimuth Distance (km) Brightness Sun altitude
Rises 23:19:54 0° 164° (SSE) 3,393 7.4 -16.6°
Reaches altitude 10° 23:22:15 10° 163° (SSE) 2,461 6.6 -17.1°
Maximum altitude 23:27:43 84° 75° (ENE) 857 4.1 -18.1°
Drops below altitude 10° 23:33:14 10° 348° (NNW) 2,486 6.6 -19.2°
Sets 23:35:37 0° 348° (NNW) 3,429 7.3 -19.7°
